Tracking 21470 objects as of 25-Sep-2020
HD Live streaming from Space Station
objects crossing your sky now

SL-8 DEB

Track SL-8 DEB now!
10-day predictions


NORAD ID: 21211
Int'l Code: 1991-009BE
Perigee: 1,441.2 km
Apogee: 1,762.8 km
Inclination: 74.1 °
Period: 118.1 minutes
Semi major axis: 7973 km
RCS: 0.0855 m2 (small)
Launch date: February 12, 1991
Source: Commonwealth of Independent States (former USSR) (CIS)
Launch site: PLESETSK MISSILE AND SPACE COMPLEX (PKMTR)

Note: This is SATELLITE DEBRIS
aabbcc
Your satellite tracking list
Your tracking list is empty




NASA's NSSDC Master Catalog

Two Line Element Set (TLE):
1 21211U 91009BE  20268.65186439  .00000160  00000-0  15927-2 0  9999
2 21211  74.1010   3.7657 0201699 336.2730  89.2332 12.19461455312473
Source of the keplerian elements: AFSPC